{"data":{"norad_id":63075,"epoch":"2026-05-25T00:50:51.266112Z","epoch_age_seconds":71739,"freshness":"FRESH","line1":"1 63075U 25036A   26145.03531558 -.00000355  00000+0  00000+0 0  9997","line2":"2 63075   0.0112 231.6736 0002873 258.9501 235.2274  1.00269867  4722","mean_motion":1.00269867,"eccentricity":0.0002873,"inclination_deg":0.0112,"raan_deg":231.6736,"arg_perigee_deg":258.9501,"mean_anomaly_deg":235.2274,"bstar":0,"rev_number":472,"period_min":1436.124374235,"perigee_km":35775.018572815,"apogee_km":35799.246736759,"semimajor_km":42165.269654787,"source":"CELESTRAK","updated_at":"2026-05-25T13:38:14.151661Z"}}